Weather History for PAJN - January, 2012

Change the Weather History Date:

Sunday, January 1, 2012

  Actual Average Record
Temperature  
Mean Temperature 33 °F 28 °F  
Max Temperature 37 °F 33 °F 45 °F (1962)
Min Temperature 29 °F 24 °F -19 °F (1950)
Degree Days  
Heating Degree Days 32 37  
Month to date heating degree days 32 37  
Since 1 July heating degree days 3854 3758  
Moisture  
Dew Point 29 °F    
Average Humidity 86    
Maximum Humidity 100    
Minimum Humidity 72    
Precipitation  
Precipitation 0.25 in 0.17 in 1.38 in (2015)
Month to date precipitation 0.25 0.17  
Year to date precipitation 0.25 0.17  
Snow  
Snow 2.70 in 0.70 in 9.60 in (1980)
Month to date snowfall 2.7 0.7  
Since 1 July snowfall 66.2 30.2  
Snow Depth 7.00 in    
Sea Level Pressure  
Sea Level Pressure 29.44 in    
Wind  
Wind Speed 19 mph (ESE)    
Max Wind Speed 29 mph    
Max Gust Speed 37 mph    
Visibility 4 miles    
Events Fog , Rain , Snow    
T = Trace of Precipitation, MM = Missing Value Source: NWS Daily Summary

Daily Weather History Graph

Daily Weather History Graph

Search for Another Location

Airport or City:

Trip Planner

Search our weather history database for the weather conditions in past years. The results will help you decide how hot, cold, wet, or windy it might be!

Date:

Astronomy

Jan. 01, 2012 Rise Set
Actual Time 8:46 AM AKST 3:17 PM AKST
Civil Twilight 7:54 AM AKST 4:09 PM AKST
Nautical Twilight 7:01 AM AKST 5:02 PM AKST
Astronomical Twilight 6:12 AM AKST 5:50 PM AKST
Moon 10:59 AM AKST (1/1) 12:52 AM AKST (1/1)
Length of Visible Light 8h 14m
Length of Day
6h 30m
First Quarter, 56% of the Moon is Illuminated
Jan 1
First Quarter
Jan 8
Full
Jan 16
Last Quarter
Jan 22
New
Jan 30
First Quarter

Hourly Weather History & Observations

Time (AKST) Temp. Windchill Dew Point Humidity Pressure Visibility Wind Dir Wind Speed Gust Speed Precip Events Conditions
12:53 AM 28.9 °F 21.1 °F 27.0 °F 92% 29.86 in 0.5 mi ESE 8.1 mph 18.4 mph 0.01 in Fog , Snow Light Snow
1:09 AM 28.4 °F 22.2 °F 26.6 °F 93% 29.86 in 1.5 mi SE 5.8 mph - 0.01 in Snow Light Snow
1:31 AM 28.4 °F - 26.6 °F 93% 29.84 in 3.0 mi Calm Calm - 0.01 in Snow Light Snow
1:53 AM 28.9 °F 25.2 °F 27.0 °F 92% 29.83 in 5.0 mi North 3.5 mph - 0.01 in Snow Light Snow
2:29 AM 30.2 °F 19.8 °F 26.6 °F 86% 29.81 in 1.0 mi SE 13.8 mph 19.6 mph 0.01 in Snow Light Snow
3:15 AM 30.2 °F 19.8 °F 24.8 °F 80% 29.78 in 7.0 mi SE 13.8 mph - 0.00 in Snow Light Snow
3:53 AM 32.0 °F 22.5 °F 24.1 °F 73% 29.76 in 10.0 mi ESE 12.7 mph - 0.01 in Snow Light Snow
4:53 AM 32.0 °F 21.6 °F 25.0 °F 75% 29.71 in 8.0 mi ESE 15.0 mph 23.0 mph 0.00 in   Overcast
5:53 AM 30.0 °F 18.7 °F 28.0 °F 92% 29.68 in 1.0 mi ESE 16.1 mph - 0.00 in Snow Light Snow
6:41 AM 30.2 °F 18.9 °F 28.4 °F 93% 29.65 in 2.0 mi ESE 16.1 mph - 0.00 in Snow Light Snow
6:53 AM 30.9 °F 18.7 °F 28.0 °F 89% 29.65 in 2.0 mi ESE 19.6 mph - 0.00 in Snow Light Snow
7:07 AM 30.2 °F 17.8 °F 28.4 °F 93% 29.63 in 3.0 mi SE 19.6 mph 25.3 mph 0.00 in Snow Light Snow
7:53 AM 32.0 °F 20.1 °F 28.0 °F 85% 29.62 in 4.0 mi SE 19.6 mph 25.3 mph 0.00 in Snow Light Snow
8:09 AM 32.0 °F 20.1 °F 28.4 °F 87% 29.60 in 2.5 mi ESE 19.6 mph 26.5 mph 0.00 in Snow Light Snow
8:24 AM 32.0 °F 20.5 °F 26.6 °F 80% 29.58 in 3.0 mi ESE 18.4 mph 35.7 mph 0.00 in Snow Light Snow
8:53 AM 30.9 °F 17.8 °F 28.0 °F 89% 29.57 in 2.0 mi SE 23.0 mph 31.1 mph 0.00 in Snow Light Snow
9:08 AM 30.2 °F 17.4 °F 28.4 °F 93% 29.55 in 0.8 mi SE 20.7 mph 28.8 mph 0.00 in Snow Light Snow
9:20 AM 30.2 °F 16.8 °F 28.4 °F 93% 29.54 in 1.0 mi SE 23.0 mph 31.1 mph 0.00 in Snow Light Snow
9:53 AM 33.1 °F 21.2 °F 28.0 °F 82% 29.49 in 1.0 mi SE 20.7 mph 31.1 mph 0.00 in Snow Light Snow
10:53 AM 32.0 °F 21.2 °F 28.0 °F 85% 29.42 in 1.0 mi ESE 16.1 mph 29.9 mph 0.02 in Snow Light Snow
11:29 AM 33.8 °F 23.5 °F 26.6 °F 75% 29.41 in 2.0 mi ESE 16.1 mph - 0.00 in Snow Light Snow
11:43 AM 32.0 °F 20.1 °F 28.4 °F 87% 29.39 in 1.5 mi SE 19.6 mph - 0.00 in Snow Light Snow
11:53 AM 30.9 °F 18.4 °F 28.9 °F 92% 29.38 in 1.0 mi SE 20.7 mph - 0.00 in Snow Light Snow
12:04 PM 30.2 °F 17.8 °F 28.4 °F 93% 29.37 in 0.8 mi ESE 19.6 mph 26.5 mph 0.00 in Snow Light Snow
12:53 PM 32.0 °F 19.5 °F 28.9 °F 88% 29.30 in 0.8 mi ESE 21.9 mph 31.1 mph 0.02 in Snow Light Snow
1:00 PM 32.0 °F 20.5 °F 28.4 °F 87% 29.29 in 0.8 mi ESE 18.4 mph 31.1 mph 0.00 in Snow Light Snow
1:53 PM 32.0 °F 20.1 °F 30.0 °F 92% 29.26 in 0.8 mi SE 19.6 mph - 0.00 in Snow Light Snow
2:53 PM 33.1 °F 22.6 °F 30.9 °F 92% 29.22 in 0.8 mi ESE 16.1 mph - 0.00 in Snow Light Snow
3:25 PM 33.8 °F 22.2 °F 30.2 °F 87% 29.21 in 1.0 mi ESE 20.7 mph - 0.02 in Snow Light Snow
3:51 PM 33.8 °F 23.9 °F 32.0 °F 93% 29.22 in 2.0 mi East 15.0 mph 23.0 mph 0.06 in Rain , Snow Light Rain
3:53 PM 34.0 °F 23.0 °F 32.0 °F 92% 29.22 in 2.0 mi ESE 18.4 mph 25.3 mph 0.07 in Rain , Snow Light Rain
4:20 PM 33.8 °F 22.5 °F 32.0 °F 93% 29.19 in 3.0 mi ESE 19.6 mph 28.8 mph 0.02 in Rain , Snow Light Rain
4:45 PM 35.6 °F 24.5 °F 33.8 °F 93% 29.18 in 7.0 mi ESE 20.7 mph 26.5 mph 0.03 in Rain , Snow Light Rain
4:53 PM 35.1 °F 23.5 °F 33.1 °F 92% 29.18 in 7.0 mi ESE 21.9 mph 28.8 mph 0.03 in Rain , Snow Light Rain
5:53 PM 35.1 °F 23.3 °F 33.1 °F 92% 29.16 in 10.0 mi ESE 23.0 mph 31.1 mph 0.03 in Rain Light Rain
6:53 PM 35.1 °F 23.0 °F 33.1 °F 92% 29.13 in 10.0 mi ESE 24.2 mph 33.4 mph 0.00 in Rain Light Rain
7:53 PM 34.0 °F 21.5 °F 33.1 °F 96% 29.13 in 10.0 mi ESE 24.2 mph 29.9 mph 0.00 in Rain Light Rain
8:53 PM 34.0 °F 22.4 °F 33.1 °F 96% 29.11 in 10.0 mi ESE 20.7 mph 29.9 mph 0.00 in Rain Light Rain
9:53 PM 35.1 °F 23.5 °F 33.1 °F 92% 29.07 in 10.0 mi ESE 21.9 mph - 0.00 in Rain Light Rain
10:53 PM 35.1 °F 23.0 °F 33.1 °F 92% 29.09 in 10.0 mi ESE 24.2 mph - 0.03 in Rain Light Rain
11:53 PM 37.0 °F 25.1 °F 34.0 °F 89% 29.11 in 10.0 mi ESE 26.5 mph 34.5 mph 0.00 in Rain Light Rain